"2010-04-15 00:00:00",26380,5.048,132.6,2.992,0.327,14.66,106.5147,15.95,16.9,20.15,0,110.7,13.24,16.76,94.6
"2010-04-15 00:00:30",26381,5.496,137.3,3.155,0.484,14.56,106.5159,15.95,16.92,20.04,0,110.7,13.24,16.76,99.3
"2010-04-15 00:01:00",26382,4.77,132.1,6.567,0.445,14.65,106.5159,15.95,16.93,20.03,0,110.7,13.24,16.76,94.1
"2010-04-15 00:01:30",26383,5.523,134.8,2.876,0.501,14.69,106.5159,15.95,16.94,20.1,0,110.7,13.24,16.76,96.8
"2010-04-15 00:02:00",26384,4.743,132.2,3.188,0.483,14.76,106.5159,15.95,16.95,19.99,0,110.7,13.24,16.76,94.2
"2010-04-15 00:02:30",26385,4.258,130.4,2.935,0.328,14.63,106.5159,15.95,16.95,19.88,0,110.7,13.24,16.76,92.4
"2010-04-15 00:03:00",26386,4.972,134.4,4.061,0.28,14.62,106.5159,15.95,16.95,19.73,0,110.7,13.24,16.76,96.4
"2010-04-15 00:03:30",26387,4.773,136.2,5.402,0.147,14.63,106.5159,15.95,16.94,19.67,0,110.7,13.25,16.76,98.2
"2010-04-15 00:04:00",26388,4.861,126.2,2.445,0.271,14.64,106.5159,15.95,16.97,19.67,0,110.7,13.25,16.76,88.2
"2010-04-15 00:04:30",26389,4.694,128.5,4.233,0.326,14.71,106.5159,15.95,16.97,19.71,0,110.7,13.25,16.76,90.5
"2010-04-15 00:05:00",26390,4.206,131,2.009,0.334,14.64,106.5159,15.95,16.98,19.66,0,110.7,13.25,16.76,93.0
"2010-04-15 00:05:30",26391,4.019,133.7,1.575,0.069,14.67,106.5159,15.95,16.97,19.51,0,110.7,13.25,16.76,95.7
"2010-04-15 00:06:00",26392,3.991,140.9,5.158,0.133,14.6,106.5159,15.95,16.97,19.5,0,110.7,13.25,16.76,102.9
"2010-04-15 00:06:30",26393,4.316,139.6,6.543,0.471,14.62,106.5105,15.94,16.96,19.63,0,110.7,13.25,16.75,101.6
"2010-04-15 00:07:00",26394,4.954,133.5,3.647,0.421,14.64,106.5032,15.92,16.97,19.69,0,110.7,13.25,16.73,95.5
"2010-04-15 00:07:30",26395,5.601,133.5,2.174,0.495,14.68,106.4908,15.89,16.96,19.75,0,110.7,13.25,16.70,95.5
"2010-04-15 00:08:00",26396,5.846,133.3,2.301,0.273,14.66,106.4824,15.87,16.95,19.94,0,110.7,13.25,16.68,95.3
"2010-04-15 00:08:30",26397,5.941,130.7,2.107,0.242,14.69,106.4824,15.87,16.96,19.92,0,110.7,13.25,16.68,92.7
"2010-04-15 00:09:00",26398,5.489,129.3,3.627,0.188,14.71,106.4824,15.87,16.94,19.96,0,110.7,13.25,16.68,91.3
"2010-04-15 00:09:30",26399,5.314,131.3,5.179,0.323,14.63,106.4827,15.87,16.94,20.16,0,110.7,13.25,16.68,93.3
"2010-04-15 00:10:00",26400,5.228,142,4.349,0.376,14.8,106.4785,15.86,16.92,20.2,0,110.7,13.25,16.67,104.0
"2010-04-15 00:10:30",26401,6.043,135.5,5.517,0.471,14.87,106.4699,15.84,16.92,20.57,0,110.7,13.25,16.64,97.5
"2010-04-15 00:11:00",26402,6.32,141.4,5.033,0.215,14.75,106.4552,15.8,16.9,20.3,0,110.7,13.25,16.61,103.4
"2010-04-15 00:11:30",26403,6.262,140.8,4.414,0.264,14.77,106.4525,15.79,16.92,20.27,0,110.7,13.25,16.60,102.8
"2010-04-15 00:12:00",26404,6.691,144.3,2.638,0.564,14.79,106.4522,15.79,16.88,20.58,0,110.7,13.25,16.60,106.3
"2010-04-15 00:12:30",26405,6.385,136.5,3.471,0.391,14.81,106.4555,15.8,16.89,20.43,0,110.7,13.25,16.61,98.5
"2010-04-15 00:13:00",26406,6.281,141.2,2.41,0.178,14.8,106.4549,15.8,16.88,20.33,0,110.7,13.25,16.61,103.2
"2010-04-15 00:13:30",26407,5.995,142.6,5.081,0.244,14.8,106.4597,15.81,16.87,20.56,0,110.7,13.25,16.62,104.6
"2010-04-15 00:14:00",26408,5.998,138.4,4.469,0.375,14.78,106.4549,15.8,16.85,20.37,0,110.7,13.25,16.61,100.4
"2010-04-15 00:14:30",26409,6.585,139.7,2.416,0.48,14.82,106.4443,15.77,16.86,20.42,0,110.7,13.24,16.58,101.7
"2010-04-15 00:15:00",26410,6.311,136.6,2.472,0.609,14.86,106.431,15.74,16.85,20.34,0,110.7,13.24,16.54,98.6
"2010-04-15 00:15:30",26411,6.006,133.3,3.103,0.204,14.86,106.4287,15.73,16.84,20.08,0,110.7,13.24,16.54,95.3
"2010-04-15 00:16:00",26412,5.762,128.5,3.47,0.286,14.85,106.4316,15.74,16.83,20.05,0,110.7,13.24,16.55,90.5
"2010-04-15 00:16:30",26413,4.852,131.3,2.932,0.414,14.84,106.4278,15.73,16.82,20.06,0,110.7,13.24,16.54,93.3
"2010-04-15 00:17:00",26414,5.343,128.3,2.049,0.142,14.81,106.4302,15.73,16.79,20.01,0,110.7,13.24,16.54,90.3
"2010-04-15 00:17:30",26415,4.954,128.1,1.754,0.299,14.83,106.4228,15.72,16.78,19.95,0,110.7,13.24,16.52,90.1
"2010-04-15 00:18:00",26416,5.678,129.7,3.17,0.454,14.83,106.4169,15.7,16.77,20.07,0,110.7,13.24,16.51,91.7
"2010-04-15 00:18:30",26417,6.271,132.9,2.749,0.216,14.83,106.4032,15.67,16.78,20.32,0,110.7,13.24,16.47,94.9
"2010-04-15 00:19:00",26418,5.635,138.6,3.191,0.511,14.86,106.4044,15.67,16.76,20.32,0,110.7,13.24,16.48,100.6
"2010-04-15 00:19:30",26419,5.536,134.1,2.642,0.238,14.85,106.4054,15.67,16.76,20.36,0,110.7,13.25,16.48,96.1
"2010-04-15 00:20:00",26420,5.427,132.5,4.832,0.325,14.84,106.4069,15.68,16.74,20.3,0,110.7,13.25,16.48,94.5
"2010-04-15 00:20:30",26421,4.701,138.5,1.762,0.205,14.81,106.4096,15.68,16.73,20.22,0,110.7,13.25,16.49,100.5
"2010-04-15 00:21:00",26422,4.514,133.4,3.694,0.197,14.85,106.4137,15.69,16.72,20.22,0,110.7,13.25,16.50,95.4
"2010-04-15 00:21:30",26423,4.74,133.5,2.643,0.203,14.82,106.4132,15.69,16.72,20.12,0,110.7,13.26,16.50,95.5
"2010-04-15 00:22:00",26424,4.675,128.7,2.891,0.293,14.81,106.4158,15.7,16.71,20.05,0,110.7,13.26,16.50,90.7
"2010-04-15 00:22:30",26425,4.768,126.3,2.462,0.163,14.8,106.4161,15.7,16.72,20.13,0,110.7,13.26,16.51,88.3
"2010-04-15 00:23:00",26426,4.459,126.6,2.898,0.201,14.74,106.4165,15.7,16.71,20.19,0,110.7,13.26,16.51,88.6
"2010-04-15 00:23:30",26427,4.39,127.4,1.8,0.276,14.78,106.4162,15.7,16.71,20.16,0,110.7,13.26,16.51,89.4
"2010-04-15 00:24:00",26428,4.238,131.8,5.571,0.195,14.84,106.4151,15.7,16.7,20.06,0,110.7,13.26,16.50,93.8
"2010-04-15 00:24:30",26429,4.078,138.7,4.017,0.246,14.8,106.4151,15.7,16.68,20.04,0,110.7,13.26,16.50,100.7
"2010-04-15 00:25:00",26430,4.121,139.7,2.442,0.267,14.75,106.4156,15.7,16.68,20.06,0,110.7,13.26,16.50,101.7
"2010-04-15 00:25:30",26431,4.01,131.2,3.643,0.202,14.8,106.4159,15.7,16.69,20.06,0,110.7,13.26,16.51,93.2
"2010-04-15 00:26:00",26432,4.083,135,2.365,0.095,14.72,106.4167,15.7,16.71,20.03,0,110.7,13.26,16.51,97.0
"2010-04-15 00:26:30",26433,4.372,129.5,3.786,0.194,14.83,106.4167,15.7,16.7,20.05,0,110.7,13.26,16.51,91.5
"2010-04-15 00:27:00",26434,4.241,123.2,2.515,0.265,14.84,106.4167,15.7,16.71,20.17,0,110.7,13.26,16.51,85.2
"2010-04-15 00:27:30",26435,5.047,127.8,2.588,0.266,14.84,106.4167,15.7,16.69,20.22,0,110.7,13.26,16.51,89.8
"2010-04-15 00:28:00",26436,4.675,122.3,1.935,0.279,14.82,106.4167,15.7,16.71,20.21,0,110.7,13.26,16.51,84.3
"2010-04-15 00:28:30",26437,5.223,120.5,3.214,0.27,14.91,106.4167,15.7,16.7,20.22,0,110.7,13.26,16.51,82.5
"2010-04-15 00:29:00",26438,5.21,124.5,3.869,0.218,14.86,106.4167,15.7,16.71,20.2,0,110.7,13.26,16.51,86.5
"2010-04-15 00:29:30",26439,4.406,117.6,7.28,0.228,14.85,106.4167,15.7,16.71,20.1,0,110.7,13.26,16.51,79.6
"2010-04-15 00:30:00",26440,5.063,118.3,1.559,0.219,14.9,106.4167,15.7,16.7,20.06,0,110.7,13.26,16.51,80.3
"2010-04-15 00:30:30",26441,4.855,113.1,0.899,0.116,14.83,106.4167,15.7,16.71,20.05,0,110.7,13.26,16.51,75.1
"2010-04-15 00:31:00",26442,4.478,107.2,3.276,0.198,14.9,106.4167,15.7,16.72,19.95,0,110.7,13.26,16.51,69.2
"2010-04-15 00:31:30",26443,4.548,107.2,4.17,0.246,14.83,106.4165,15.7,16.71,19.92,0,110.7,13.26,16.51,69.2
"2010-04-15 00:32:00",26444,4.507,110.6,3.133,0.191,14.91,106.4153,15.7,16.71,19.97,0,110.7,13.26,16.50,72.6
"2010-04-15 00:32:30",26445,3.993,113.6,4.001,0.131,14.88,106.4131,15.69,16.71,20.02,0,110.7,13.25,16.50,75.6
"2010-04-15 00:33:00",26446,4.655,117,2.597,0.272,14.86,106.4097,15.68,16.7,19.94,0,110.7,13.25,16.49,79.0
"2010-04-15 00:33:30",26447,5.215,119,3.102,0.273,14.81,106.4004,15.66,16.7,20.11,0,110.7,13.25,16.47,81.0
"2010-04-15 00:34:00",26448,4.871,116.1,3.709,0.405,14.87,106.3892,15.63,16.71,20.14,0,110.7,13.25,16.44,78.1
"2010-04-15 00:34:30",26449,4.727,118,4.518,0.256,14.82,106.3844,15.62,16.7,20.09,0,110.7,13.25,16.42,80.0
"2010-04-15 00:35:00",26450,4.834,127,2.419,0.232,14.83,106.383,15.61,16.69,20.08,0,110.7,13.25,16.42,89.0
"2010-04-15 00:35:30",26451,4.722,126.5,1.704,0.137,14.9,106.383,15.61,16.69,20.11,0,110.7,13.25,16.42,88.5
"2010-04-15 00:36:00",26452,4.523,125.7,2.826,0.17,14.92,106.383,15.61,16.69,20.2,0,110.7,13.26,16.42,87.7
"2010-04-15 00:36:30",26453,4.786,125.6,2.591,0.198,14.91,106.383,15.61,16.68,20.15,0,110.7,13.26,16.42,87.6
"2010-04-15 00:37:00",26454,5.087,122.1,4.45,0.472,14.95,106.383,15.61,16.68,20.24,0,110.7,13.26,16.42,84.1
"2010-04-15 00:37:30",26455,5.813,127,4.243,0.353,15.04,106.383,15.61,16.67,20.6,0,110.7,13.26,16.42,89.0
"2010-04-15 00:38:00",26456,5.267,123.7,2.469,0.339,15.04,106.383,15.61,16.68,20.75,0,110.7,13.26,16.42,85.7
"2010-04-15 00:38:30",26457,5.537,130.4,4.903,0.334,15,106.383,15.61,16.67,20.86,0,110.7,13.26,16.42,92.4
"2010-04-15 00:39:00",26458,5.506,123.9,2.082,0.276,15.02,106.383,15.61,16.65,20.83,0,110.7,13.26,16.42,85.9
"2010-04-15 00:39:30",26459,5.497,125.2,2.355,0.186,14.96,106.383,15.61,16.66,20.76,0,110.7,13.26,16.42,87.2
"2010-04-15 00:40:00",26460,5.305,123.8,2.157,0.248,15,106.3824,15.61,16.66,20.62,0,110.7,13.26,16.42,85.8
"2010-04-15 00:40:30",26461,5.439,126.2,2.173,0.155,15.01,106.3802,15.61,16.63,20.59,0,110.6,13.26,16.41,88.2
"2010-04-15 00:41:00",26462,5.927,121.3,1.75,0.221,14.98,106.3757,15.6,16.64,20.68,0,110.6,13.26,16.40,83.3
"2010-04-15 00:41:30",26463,5.744,118.2,2.143,0.192,15,106.3571,15.55,16.63,20.71,0,110.6,13.26,16.35,80.2
"2010-04-15 00:42:00",26464,5.318,117.9,1.315,0.166,14.96,106.3504,15.53,16.62,20.69,0,110.6,13.26,16.34,79.9
"2010-04-15 00:42:30",26465,5.408,120,1.934,0.178,14.98,106.3492,15.53,16.62,20.58,0,110.6,13.26,16.33,82.0
"2010-04-15 00:43:00",26466,5.433,125.5,1.61,0.32,15,106.3498,15.53,16.61,20.6,0,110.6,13.27,16.34,87.5
"2010-04-15 00:43:30",26467,5.174,123.3,3.067,0.149,14.99,106.3473,15.52,16.59,20.57,0,110.6,13.27,16.33,85.3
"2010-04-15 00:44:00",26468,4.961,124.1,4.574,0.35,15.03,106.3388,15.5,16.57,20.74,0,110.6,13.27,16.31,86.1
"2010-04-15 00:44:30",26469,5.362,129.5,1.784,0.33,15.03,106.3219,15.46,16.57,20.9,0,110.6,13.27,16.26,91.5
"2010-04-15 00:45:00",26470,5.093,127.4,2.567,0.129,15,106.3217,15.46,16.58,20.96,0,110.6,13.27,16.26,89.4
"2010-04-15 00:45:30",26471,5.43,124.4,2.858,0.38,15.05,106.3226,15.46,16.56,21.17,0,110.6,13.27,16.27,86.4
"2010-04-15 00:46:00",26472,4.331,120.2,3.65,0.529,14.98,106.3268,15.47,16.55,21.15,0,110.6,13.27,16.28,82.2
"2010-04-15 00:46:30",26473,4.422,123.3,4.01,0.336,15.03,106.3319,15.48,16.54,21.16,0,110.6,13.27,16.29,85.3
"2010-04-15 00:47:00",26474,4.821,119.2,3.804,0.239,15.01,106.337,15.5,16.54,21.47,0,110.6,13.27,16.30,81.2
"2010-04-15 00:47:30",26475,5.196,116.2,2.412,0.236,14.99,106.3385,15.5,16.52,21.24,0,110.6,13.27,16.31,78.2
"2010-04-15 00:48:00",26476,5.567,118.6,1.348,0.131,15.06,106.334,15.49,16.52,21.21,0,110.6,13.26,16.29,80.6
"2010-04-15 00:48:30",26477,5.508,117.3,1.934,0.122,15,106.329,15.48,16.51,20.78,0,110.6,13.26,16.28,79.3
"2010-04-15 00:49:00",26478,5.248,114.7,1.277,0.122,15.08,106.3167,15.44,16.5,20.45,0,110.6,13.26,16.25,76.7
"2010-04-15 00:49:30",26479,5.449,111.8,1.144,0.128,15.09,106.3086,15.42,16.5,20.52,0,110.6,13.26,16.23,73.8
"2010-04-15 00:50:00",26480,5.671,112.2,1.498,0.138,15.15,106.3104,15.43,16.49,20.42,0,110.6,13.26,16.23,74.2
"2010-04-15 00:50:30",26481,5.555,112.5,1.893,0.249,15.03,106.3098,15.43,16.47,20.43,0,110.6,13.26,16.23,74.5
"2010-04-15 00:51:00",26482,5.372,112.7,3.48,0.132,15.07,106.3134,15.44,16.47,20.44,0,110.6,13.26,16.24,74.7
"2010-04-15 00:51:30",26483,5.376,114.8,2.38,0.12,15.05,106.3141,15.44,16.45,20.64,0,110.6,13.26,16.24,76.8
"2010-04-15 00:52:00",26484,5.133,117.1,1.211,0.101,15.1,106.3059,15.42,16.44,20.6,0,110.6,13.26,16.22,79.1
"2010-04-15 00:52:30",26485,5.161,113.3,1.642,0.157,15.11,106.2925,15.38,16.43,20.52,0,110.6,13.26,16.19,75.3
"2010-04-15 00:53:00",26486,4.919,115.1,2.134,0.205,15.11,106.2834,15.36,16.44,20.58,0,110.6,13.26,16.16,77.1
"2010-04-15 00:53:30",26487,4.525,116.4,1.87,0.171,15.07,106.2838,15.36,16.41,20.63,0,110.6,13.27,16.17,78.4
"2010-04-15 00:54:00",26488,4.414,119.3,2.268,0.123,15.08,106.2838,15.36,16.41,20.56,0,110.6,13.27,16.17,81.3
"2010-04-15 00:54:30",26489,4.462,118.7,1.003,0.149,15.1,106.2838,15.36,16.41,20.48,0,110.6,13.27,16.17,80.7
"2010-04-15 00:55:00",26490,4.48,117.5,1.401,0.147,15.13,106.2838,15.36,16.39,20.44,0,110.6,13.27,16.17,79.5
"2010-04-15 00:55:30",26491,4.602,117.6,2.248,0.111,15.18,106.2838,15.36,16.38,20.39,0,110.6,13.27,16.17,79.6
"2010-04-15 00:56:00",26492,4.548,117.9,1.209,0.1,15.19,106.281,15.35,16.38,20.37,0,110.6,13.27,16.16,79.9
"2010-04-15 00:56:30",26493,4.43,119.8,2.205,0.126,15.07,106.2697,15.32,16.37,20.35,0,110.6,13.27,16.13,81.8
"2010-04-15 00:57:00",26494,4.336,119.9,0.963,0.099,15.07,106.2559,15.29,16.37,20.36,0,110.6,13.27,16.09,81.9
"2010-04-15 00:57:30",26495,4.209,119.5,1.201,0.073,15.07,106.2506,15.27,16.36,20.35,0,110.6,13.27,16.08,81.5
"2010-04-15 00:58:00",26496,4.47,122,0.798,0.065,15.06,106.25,15.27,16.35,20.42,0,110.6,13.27,16.08,84.0
"2010-04-15 00:58:30",26497,4.357,124.5,1.218,0.137,15.12,106.25,15.27,16.35,20.47,0,110.6,13.27,16.08,86.5
"2010-04-15 00:59:00",26498,4.322,125.7,1.845,0.099,15.17,106.25,15.27,16.33,20.46,0,110.6,13.27,16.08,87.7
"2010-04-15 00:59:30",26499,4.451,125.3,1.274,0.099,15.15,106.25,15.27,16.33,20.45,0,110.6,13.27,16.08,87.3
"2010-04-15 01:00:00",26500,4.682,125.1,0.405,0.071,15.27,106.25,15.27,16.34,20.44,0,110.6,13.27,16.08,87.1
"2010-04-15 01:00:30",26501,4.652,124.1,1.477,0.076,15.23,106.25,15.27,16.33,20.39,0,110.6,13.28,16.08,86.1
"2010-04-15 01:01:00",26502,4.571,125.7,1.344,0.057,15.18,106.25,15.27,16.32,20.35,0,110.6,13.27,16.08,87.7
"2010-04-15 01:01:30",26503,4.508,125.3,0.749,0.113,15.19,106.25,15.27,16.31,20.37,0,110.6,13.27,16.08,87.3
"2010-04-15 01:02:00",26504,4.659,124.5,1.414,0.128,15.29,106.25,15.27,16.33,20.08,0,110.6,13.28,16.08,86.5
"2010-04-15 01:02:30",26505,4.793,123.3,1.315,0.126,15.23,106.25,15.27,16.31,20.4,0,110.6,13.28,16.08,85.3
"2010-04-15 01:03:00",26506,4.578,124,1.469,0.113,15.19,106.25,15.27,16.32,20.42,0,110.6,13.28,16.08,86.0
"2010-04-15 01:03:30",26507,4.726,124.9,1.054,0.187,15.31,106.2497,15.27,16.31,20.47,0,110.6,13.28,16.08,86.9
"2010-04-15 01:04:00",26508,4.774,124.4,3.379,0.306,15.27,106.2424,15.25,16.29,20.49,0,110.6,13.28,16.06,86.4
"2010-04-15 01:04:30",26509,4.992,123,1.377,0.081,15.25,106.2342,15.23,16.3,20.41,0,110.6,13.28,16.04,85.0
"2010-04-15 01:05:00",26510,5.261,121.8,1.833,0.069,15.26,106.2188,15.19,16.3,20.34,0,110.6,13.27,16.00,83.8
"2010-04-15 01:05:30",26511,5.196,119.8,0.758,0.068,15.31,106.2162,15.19,16.29,20.44,0,110.6,13.27,15.99,81.8
"2010-04-15 01:06:00",26512,5.452,120.6,0.95,0.109,15.42,106.2162,15.19,16.27,20.54,0,110.6,13.27,15.99,82.6
"2010-04-15 01:06:30",26513,5.247,121.9,0.917,0.08,15.47,106.2162,15.19,16.26,20.41,0,110.6,13.27,15.99,83.9
"2010-04-15 01:07:00",26514,5.1,122.9,1.396,0.054,15.44,106.2162,15.19,16.25,20.12,0,110.6,13.27,15.99,84.9
"2010-04-15 01:07:30",26515,5.281,121.4,1.675,0.218,15.48,106.21,15.17,16.24,20.33,0,110.6,13.27,15.98,83.4
"2010-04-15 01:08:00",26516,5.385,122.6,1.162,0.069,15.41,106.1918,15.12,16.23,20.96,0,110.6,13.27,15.93,84.6
"2010-04-15 01:08:30",26517,5.248,119.1,1.792,0.112,15.43,106.1848,15.11,16.22,21.01,0,110.6,13.27,15.91,81.1
"2010-04-15 01:09:00",26518,5.237,118.4,1.859,0.162,15.45,106.1875,15.11,16.21,20.79,0,110.6,13.27,15.92,80.4
"2010-04-15 01:09:30",26519,5.147,118.3,2.063,0.094,15.49,106.1893,15.12,16.19,20.52,0,110.6,13.27,15.92,80.3
"2010-04-15 01:10:00",26520,4.975,121.6,2.065,0.074,15.51,106.1867,15.11,16.17,20.26,0,110.6,13.28,15.92,83.6
"2010-04-15 01:10:30",26521,5.049,120.9,1.444,0.123,15.47,106.1691,15.07,16.17,20.24,0,110.6,13.28,15.87,82.9
"2010-04-15 01:11:00",26522,5.009,123.7,1.361,0.144,15.44,106.1651,15.06,16.14,20.01,0,110.5,13.28,15.86,85.7
"2010-04-15 01:11:30",26523,5.356,121.7,0.847,0.195,15.38,106.1705,15.07,16.14,20.23,0,110.6,13.28,15.87,83.7
"2010-04-15 01:12:00",26524,5.579,121.3,0.661,0.046,15.34,106.1743,15.08,16.12,20.86,0,110.5,13.28,15.88,83.3
"2010-04-15 01:12:30",26525,5.626,122.1,0.871,0.062,15.34,106.1607,15.04,16.11,21.05,0,110.5,13.28,15.85,84.1
"2010-04-15 01:13:00",26526,5.686,122.7,1.527,0.144,15.42,106.1518,15.02,16.09,20.61,0,110.5,13.28,15.83,84.7
"2010-04-15 01:13:30",26527,5.765,120.5,0.804,0.052,15.35,106.1477,15.01,16.08,20.34,0,110.5,13.28,15.82,82.5
"2010-04-15 01:14:00",26528,5.684,120.5,0.759,0.062,15.39,106.1471,15.01,16.06,20.52,0,110.5,13.28,15.81,82.5
"2010-04-15 01:14:30",26529,5.486,119.6,0.671,0.102,15.5,106.1507,15.02,16.05,20.35,0,110.5,13.28,15.82,81.6
"2010-04-15 01:15:00",26530,5.43,122.4,2.261,0.078,15.44,106.1488,15.01,16.04,20.2,0,110.5,13.29,15.82,84.4
"2010-04-15 01:15:30",26531,5.636,121.6,1.542,0.142,15.43,106.1397,14.99,16.01,20.32,0,110.5,13.28,15.80,83.6
"2010-04-15 01:16:00",26532,5.639,121.3,0.612,0.047,15.41,106.1226,14.95,16.03,19.77,0,110.5,13.29,15.75,83.3
"2010-04-15 01:16:30",26533,5.53,119.9,2.127,0.2,15.54,106.1172,14.93,16,19.44,0,110.5,13.29,15.74,81.9
"2010-04-15 01:17:00",26534,5.146,120.1,2.159,0.261,15.58,106.1169,14.93,15.98,19.05,0,110.5,13.29,15.74,82.1
"2010-04-15 01:17:30",26535,4.877,123.3,1.414,0.237,15.6,106.1169,14.93,15.98,18.88,0,110.5,13.29,15.74,85.3
"2010-04-15 01:18:00",26536,4.821,123.3,3.98,0.269,15.55,106.1169,14.93,15.95,18.91,0,110.5,13.29,15.74,85.3
"2010-04-15 01:18:30",26537,5.159,121.4,1.342,0.072,15.56,106.1169,14.93,15.96,18.54,0,110.5,13.29,15.74,83.4
"2010-04-15 01:19:00",26538,5.115,123.6,1.073,0.067,15.46,106.1164,14.93,15.95,18.23,0,110.5,13.29,15.74,85.6
"2010-04-15 01:19:30",26539,4.994,124.4,1.448,0.084,15.56,106.1133,14.92,15.94,17.86,0,110.5,13.29,15.73,86.4
"2010-04-15 01:20:00",26540,4.645,122.8,3.191,0.118,15.65,106.1079,14.91,15.94,17.99,0,110.5,13.29,15.71,84.8
"2010-04-15 01:20:30",26541,4.479,122.4,2.397,0.218,15.59,106.1079,14.91,15.92,18.11,0,110.5,13.3,15.71,84.4
"2010-04-15 01:21:00",26542,4.735,117.4,1.075,0.204,15.61,106.1014,14.89,15.92,17.77,0,110.5,13.3,15.70,79.4
"2010-04-15 01:21:30",26543,4.776,118.7,0.987,0.058,15.6,106.1043,14.9,15.91,16.74,0,110.5,13.3,15.70,80.7
"2010-04-15 01:22:00",26544,4.809,119.3,1.309,0.058,15.57,106.0983,14.88,15.91,16.69,0,110.5,13.29,15.69,81.3
"2010-04-15 01:22:30",26545,4.866,118.3,1.059,0.133,15.57,106.0924,14.87,15.91,16.65,0,110.5,13.29,15.67,80.3
"2010-04-15 01:23:00",26546,5.149,116.3,0.596,0.077,15.57,106.0868,14.86,15.89,18.38,0,110.5,13.29,15.66,78.3
"2010-04-15 01:23:30",26547,5.015,115.3,0.515,0.056,15.6,106.0837,14.85,15.91,19.9,0,110.5,13.29,15.65,77.3
"2010-04-15 01:24:00",26548,5.02,114.5,0.614,0.076,15.6,106.0834,14.85,15.9,20.42,0,110.5,13.29,15.65,76.5
"2010-04-15 01:24:30",26549,5.052,115.8,0.948,0.08,15.63,106.0837,14.85,15.9,20.4,0,110.5,13.29,15.65,77.8
"2010-04-15 01:25:00",26550,4.933,114.8,1.307,0.089,15.61,106.0831,14.85,15.91,20.34,0,110.5,13.29,15.65,76.8
"2010-04-15 01:25:30",26551,5.015,114.7,0.664,0.104,15.7,106.0834,14.85,15.89,20.26,0,110.5,13.29,15.65,76.7
"2010-04-15 01:26:00",26552,4.997,112.7,1.06,0.072,15.61,106.0836,14.85,15.88,20.31,0,110.5,13.29,15.65,74.7
"2010-04-15 01:26:30",26553,5.021,115.4,1.191,0.125,15.77,106.0796,14.84,15.87,19.69,0,110.5,13.29,15.64,77.4
"2010-04-15 01:27:00",26554,5.083,114,1.931,0.117,15.79,106.064,14.8,15.86,18.81,0,110.5,13.3,15.60,76.0
"2010-04-15 01:27:30",26555,4.896,112.3,1.097,0.086,15.68,106.0625,14.79,15.87,18.67,0,110.5,13.3,15.60,74.3
"2010-04-15 01:28:00",26556,4.888,114.9,2.706,0.049,15.71,106.0699,14.81,15.85,18.67,0,110.5,13.3,15.62,76.9
"2010-04-15 01:28:30",26557,4.84,118.9,1.403,0.106,15.72,106.0741,14.82,15.85,19.22,0,110.5,13.3,15.63,80.9
"2010-04-15 01:29:00",26558,4.789,118,1.247,0.146,15.78,106.0762,14.83,15.84,19.16,0,110.5,13.3,15.63,80.0
"2010-04-15 01:29:30",26559,4.942,119.3,0.771,0.055,15.62,106.0691,14.81,15.82,21.08,0,110.5,13.3,15.61,81.3
"2010-04-15 01:30:00",26560,4.844,117.8,0.705,0.082,15.72,106.0628,14.79,15.81,22.46,0,110.5,13.3,15.60,79.8
"2010-04-15 01:30:30",26561,4.758,117.2,1.083,0.03,15.81,106.0513,14.76,15.81,22.49,0,110.5,13.31,15.57,79.2
"2010-04-15 01:31:00",26562,4.541,114.6,1.345,0.084,15.71,106.0514,14.76,15.8,22.04,0,110.5,13.31,15.57,76.6
"2010-04-15 01:31:30",26563,4.453,111.8,1.613,0.108,15.88,106.0514,14.76,15.79,20.16,0,110.5,13.31,15.57,73.8
"2010-04-15 01:32:00",26564,4.492,111.5,1.791,0.114,15.88,106.0455,14.75,15.77,18.71,0,110.5,13.31,15.55,73.5
"2010-04-15 01:32:30",26565,4.428,112.4,1.965,0.14,15.9,106.0241,14.69,15.74,17.94,0,110.5,13.31,15.50,74.4
"2010-04-15 01:33:00",26566,4.321,111.4,1.487,0.17,15.91,106.0176,14.68,15.74,17.41,0,110.5,13.31,15.48,73.4
"2010-04-15 01:33:30",26567,4.583,112.1,0.968,0.045,15.84,106.0176,14.68,15.74,17.13,0,110.5,13.31,15.48,74.1
"2010-04-15 01:34:00",26568,4.46,114.3,1.501,0.087,15.83,106.0176,14.68,15.72,17.05,0,110.5,13.31,15.48,76.3
"2010-04-15 01:34:30",26569,4.191,116.6,0.546,0.092,15.67,106.0176,14.68,15.71,17.76,0,110.5,13.31,15.48,78.6
"2010-04-15 01:35:00",26570,4.036,116.9,1.312,0.08,15.72,106.0159,14.67,15.7,18.07,0,110.5,13.31,15.48,78.9
"2010-04-15 01:35:30",26571,3.979,115.8,0.75,0.1,15.83,106.0102,14.66,15.69,17.97,0,110.5,13.31,15.46,77.8
"2010-04-15 01:36:00",26572,3.996,116.5,1.045,0.093,15.76,106.0026,14.64,15.68,17.98,0,110.5,13.31,15.44,78.5
"2010-04-15 01:36:30",26573,3.977,117.9,0.734,0.074,15.88,105.9866,14.6,15.67,17.61,0,110.5,13.31,15.40,79.9
"2010-04-15 01:37:00",26574,3.979,117.7,0.991,0.061,15.79,105.9838,14.59,15.68,17.73,0,110.5,13.31,15.39,79.7
"2010-04-15 01:37:30",26575,3.878,116.6,0.513,0.056,15.92,105.9838,14.59,15.68,17.55,0,110.5,13.31,15.39,78.6
"2010-04-15 01:38:00",26576,3.757,118.2,0.592,0.067,15.8,105.9838,14.59,15.65,17.41,0,110.5,13.31,15.39,80.2
"2010-04-15 01:38:30",26577,3.643,119.3,0.634,0.047,15.74,105.9838,14.59,15.67,17.68,0,110.5,13.31,15.39,81.3
"2010-04-15 01:39:00",26578,3.785,119.9,0.717,0.085,15.72,105.9838,14.59,15.64,18.66,0,110.5,13.31,15.39,81.9
"2010-04-15 01:39:30",26579,3.858,119.3,0.64,0.035,15.75,105.9841,14.59,15.63,19.33,0,110.5,13.31,15.40,81.3
"2010-04-15 01:40:00",26580,3.947,117.6,0.68,0.039,15.76,105.9847,14.59,15.64,19.74,0,110.5,13.31,15.40,79.6
"2010-04-15 01:40:30",26581,3.917,116.3,1.115,0.028,15.87,105.9806,14.58,15.63,19.67,0,110.5,13.31,15.39,78.3
"2010-04-15 01:41:00",26582,3.907,115.7,0.024,0.033,15.82,105.9805,14.58,15.63,20.33,0,110.5,13.31,15.39,77.7
"2010-04-15 01:41:30",26583,4.04,115.1,0.761,0.079,15.79,105.9717,14.56,15.62,21.27,0,110.5,13.31,15.36,77.1
"2010-04-15 01:42:00",26584,4.146,113.8,0.991,0.053,15.79,105.9637,14.54,15.62,21.99,0,110.4,13.31,15.34,75.8
"2010-04-15 01:42:30",26585,4.122,113.3,0.632,0.051,15.85,105.9676,14.55,15.61,22.21,0,110.4,13.31,15.35,75.3
"2010-04-15 01:43:00",26586,4.154,112.7,0.846,0.036,15.85,105.9718,14.56,15.61,22.24,0,110.4,13.31,15.36,74.7
"2010-04-15 01:43:30",26587,4.186,111.6,0.393,0.042,15.88,105.9768,14.57,15.6,21.78,0,110.4,13.31,15.38,73.6
"2010-04-15 01:44:00",26588,4.204,111,0.765,0.046,15.84,105.9804,14.58,15.59,21.89,0,110.4,13.32,15.39,73.0
"2010-04-15 01:44:30",26589,5.294,114.6,6.705,1.321,17.55,105.9783,14.58,15.73,21.68,0,110.4,13.29,15.38,76.6
"2010-04-15 01:45:00",26590,4.401,109.3,1.343,0.045,15.9,105.9669,14.55,15.69,21.57,0,110.4,13.33,15.35,71.3
"2010-04-15 01:45:30",26591,4.448,109.4,0.931,0.056,15.29,105.9567,14.52,15.57,21.55,0,110.4,13.33,15.32,71.4
"2010-04-15 01:46:00",26592,4.39,111.9,0.833,0.065,15.11,105.952,14.51,15.56,21.61,0,110.4,13.33,15.31,73.9
"2010-04-15 01:46:30",26593,4.433,112.3,0.399,0.029,15.12,105.952,14.51,15.56,22.71,0,110.4,13.33,15.31,74.3
"2010-04-15 01:47:00",26594,4.586,112.2,0.742,0.069,15.23,105.952,14.51,15.54,23.47,0,110.4,13.33,15.31,74.2
"2010-04-15 01:47:30",26595,4.748,111.5,1.057,0.104,15.36,105.9517,14.51,15.55,23.96,0,110.4,13.33,15.31,73.5
"2010-04-15 01:48:00",26596,4.662,110.7,1.438,0.168,15.49,105.9421,14.48,15.54,23.84,0,110.4,13.33,15.29,72.7
"2010-04-15 01:48:30",26597,5.151,111,5.002,0.732,16.26,105.923,14.44,15.64,24.17,0,110.4,13.29,15.24,73.0
"2010-04-15 01:49:00",26598,7.171,118.8,6.726,1.204,19.15,105.9182,14.42,15.75,24.51,0,110.4,13.29,15.23,80.8
"2010-04-15 01:49:30",26599,6.063,111.1,6.924,1.293,17.05,105.9182,14.42,15.65,24.39,0,110.4,13.29,15.23,73.1